Weather reports worldwide

Advertisment
Estepona, Spain (8463): temperature & dewpoint: 06.12.2019 16:00:00 - 12.12.2019 16:00:00 (CET)Estepona, Spain (8463): wind speed & gusts: 06.12.2019 16:00:00 - 12.12.2019 16:00:00 (CET)Estepona, Spain (8463): wind direction: 06.12.2019 16:00:00 - 12.12.2019 16:00:00 (CET)Estepona, Spain (8463): reduced air pressure: 06.12.2019 16:00:00 - 12.12.2019 16:00:00 (CET)Estepona, Spain (8463): visibility: 06.12.2019 16:00:00 - 12.12.2019 16:00:00 (CET)Estepona, Spain (8463): sunshine duration: 06.12.2019 16:00:00 - 12.12.2019 16:00:00 (CET)Estepona, Spain (8463): precipitation: 06.12.2019 16:00:00 - 12.12.2019 16:00:00 (CET)
Date & Time tt [°C] td [°C] ff [km/h] ff [kn] fx [km/h] fx [kn] dd ppp [hPa] vv [km] sd [min] rr [mm]
12.12.2019 16:00:00 16,8 3,8 18 10 41 22 W 1025,9 0,7 0 0,0
12.12.2019 15:00:00 17,2 3,4 18 10 53 28 W 1026,0 0,7 0 0,0
12.12.2019 14:00:00 18,0 1,5 21 11 42 23 W 1025,6 0,7 0 0,0
12.12.2019 13:00:00 17,7 1,3 15 8 35 19 W 1026,7 0,7 0 -
12.12.2019 12:00:00 17,7 1,7 8 4 17 9 SSE 1027,7 0,7 27 0,0
12.12.2019 11:00:00 16,8 -1,4 5 3 21 12 W 1026,9 - 60 0,0
12.12.2019 10:00:00 15,5 -0,7 4 2 19 10 WSW 1027,0 0,7 10 0,0
12.12.2019 09:00:00 11,7 1,1 4 2 12 6 SSE 1026,6 0,7 0 0,0
12.12.2019 08:00:00 10,9 1,5 3 1 8 4 NE 1026,0 0,7 0 0,0
12.12.2019 07:00:00 11,3 1,1 5 3 10 5 NW 1026,0 0,7 0 -
12.12.2019 06:00:00 10,1 1,3 4 2 10 5 W 1025,9 0,7 0 0,0
12.12.2019 05:00:00 9,7 0,6 4 2 9 5 W 1025,9 0,7 0 0,0
12.12.2019 04:00:00 9,5 0,4 1 1 6 4 WSW 1026,2 0,7 0 0,0
12.12.2019 03:00:00 10,2 1,1 3 2 8 4 W 1026,3 0,7 0 0,0
12.12.2019 02:00:00 11,0 1,1 2 1 13 7 NE 1026,5 0,7 0 0,0
12.12.2019 01:00:00 12,4 0,9 3 2 10 6 NW 1026,7 0,7 0 -
12.12.2019 00:00:00 13,7 1,3 4 2 16 8 ESE 1027,0 0,7 0 0,0
11.12.2019 23:00:00 14,4 1,7 4 2 18 10 ENE 1026,4 0,7 0 0,0
11.12.2019 22:00:00 15,7 4,5 5 3 23 12 WNW 1026,3 0,7 0 0,0
11.12.2019 21:00:00 15,9 5,0 5 3 21 11 SW 1026,8 0,7 0 0,0
11.12.2019 20:00:00 15,2 5,9 3 1 31 17 NW 1026,6 0,7 0 0,0
11.12.2019 19:00:00 16,8 6,1 11 6 46 25 W 1025,9 0,7 0 -
11.12.2019 18:00:00 17,4 5,6 25 14 50 27 W 1024,9 0,7 20 0,0
11.12.2019 17:00:00 18,8 4,1 25 13 44 24 WSW 1024,9 0,7 22 0,0
11.12.2019 16:00:00 19,3 3,0 21 12 37 20 WSW 1024,6 0,7 0 0,0
11.12.2019 15:00:00 19,9 -2,5 16 9 41 22 W 1025,2 0,7 0 0,0
11.12.2019 14:00:00 20,9 -6,7 22 12 48 26 W 1025,6 - 0 0,0
11.12.2019 13:00:00 20,0 -1,2 22 12 43 23 W 1025,7 0,7 0 -
11.12.2019 12:00:00 18,3 3,4 16 8 43 23 W 1026,3 0,7 30 0,0
11.12.2019 11:00:00 16,9 6,1 19 11 46 25 W 1026,4 0,7 60 0,0
11.12.2019 10:00:00 16,7 1,5 16 9 32 17 W 1025,6 0,7 5 0,0
11.12.2019 09:00:00 14,6 3,9 13 7 40 22 SW 1025,3 0,7 0 0,0
11.12.2019 08:00:00 - - - - - - - - - - -
11.12.2019 07:00:00 13,5 3,0 24 13 39 21 W 1025,0 0,7 0 -
11.12.2019 06:00:00 11,1 4,1 3 2 7 4 NW 1024,7 0,7 0 0,0
11.12.2019 05:00:00 11,6 4,1 4 2 10 5 NNE 1024,5 0,7 0 0,0
11.12.2019 04:00:00 11,7 4,1 3 2 8 5 NW 1024,6 0,7 0 0,0
11.12.2019 03:00:00 12,1 6,1 3 2 8 5 NNW 1025,0 0,7 0 0,0
11.12.2019 02:00:00 11,2 6,5 3 2 8 4 W 1025,3 0,7 0 0,0
11.12.2019 01:00:00 11,5 6,8 3 1 8 4 WNW 1025,6 0,7 0 -
11.12.2019 00:00:00 11,5 7,0 2 1 4 2 WSW 1025,7 0,7 0 0,0
10.12.2019 23:00:00 11,9 7,0 1 1 5 3 S 1025,8 0,7 0 0,0
10.12.2019 22:00:00 12,7 7,6 2 1 6 3 W 1026,1 0,7 0 0,0
10.12.2019 21:00:00 13,5 8,1 3 1 6 3 WNW 1026,2 0,7 0 0,0
10.12.2019 20:00:00 13,9 8,1 1 1 8 5 WNW 1026,3 0,7 0 0,0
10.12.2019 19:00:00 14,4 7,7 3 2 6 4 W 1026,0 0,7 0 -
10.12.2019 18:00:00 15,6 9,0 4 2 16 9 NE 1025,9 0,7 28 0,0
10.12.2019 17:00:00 16,7 10,3 10 5 20 11 ENE 1025,8 0,7 27 0,0
10.12.2019 16:00:00 17,9 11,2 12 6 18 10 ENE 1025,5 0,7 0 0,0
10.12.2019 15:00:00 17,4 9,6 4 2 11 6 SW 1025,7 0,7 0 0,0
10.12.2019 14:00:00 19,3 8,3 3 2 7 4 S 1026,9 0,7 0 0,0
10.12.2019 13:00:00 17,2 8,9 3 1 8 4 S 1028,2 0,7 0 -
10.12.2019 12:00:00 16,1 8,8 4 2 8 4 SSW 1029,0 0,7 30 0,0
10.12.2019 11:00:00 16,2 8,1 3 2 8 4 SSW 1028,8 0,7 60 0,0
10.12.2019 10:00:00 14,7 8,4 4 2 7 4 E 1028,4 0,7 5 0,0
10.12.2019 09:00:00 11,6 7,8 3 2 7 4 ENE 1028,2 0,7 0 0,0
10.12.2019 08:00:00 10,8 7,4 4 2 7 4 NNW 1027,9 0,7 0 0,0
10.12.2019 07:00:00 10,6 7,1 0 0 4 2 N 1027,8 0,7 0 -
10.12.2019 06:00:00 10,6 7,1 2 1 5 3 NW 1027,7 0,7 0 0,0
10.12.2019 05:00:00 11,4 7,8 3 2 5 3 NNE 1027,7 0,7 0 0,0
10.12.2019 04:00:00 11,6 7,7 2 1 6 3 W 1028,0 0,7 0 0,0
10.12.2019 03:00:00 12,1 8,5 1 1 6 3 WSW 1027,9 0,7 0 0,0
10.12.2019 02:00:00 12,3 8,4 2 1 6 4 WSW 1028,1 0,7 0 0,0
10.12.2019 01:00:00 13,0 9,0 3 2 6 3 NE 1028,5 0,7 0 -
10.12.2019 00:00:00 14,1 9,9 1 1 6 3 W 1028,6 0,7 0 0,0
09.12.2019 23:00:00 14,8 10,0 3 1 7 4 WNW 1028,6 0,7 0 0,0
09.12.2019 22:00:00 15,2 9,9 3 2 6 4 NW 1028,8 0,7 0 0,0
09.12.2019 21:00:00 14,4 10,0 2 1 7 4 NNW 1028,6 0,7 0 0,0
09.12.2019 20:00:00 14,4 10,0 4 2 7 4 N 1028,4 0,7 0 0,0
09.12.2019 19:00:00 15,4 10,5 1 1 7 4 SSW 1027,9 0,7 0 -
09.12.2019 18:00:00 16,8 11,3 5 3 10 5 W 1027,5 0,7 28 0,0
09.12.2019 17:00:00 - - - - - - - - - - -
09.12.2019 16:00:00 18,2 11,6 6 3 16 9 ENE 1027,3 0,7 0 0,0
09.12.2019 15:00:00 19,4 10,9 4 2 13 7 ENE 1027,3 0,7 0 0,0
09.12.2019 14:00:00 19,8 9,7 4 2 8 4 E 1027,8 0,7 0 0,0
09.12.2019 13:00:00 19,5 9,4 4 2 11 6 ESE 1028,8 0,7 0 -
09.12.2019 12:00:00 18,8 11,3 2 1 12 6 SSW 1029,4 0,7 36 0,0
09.12.2019 11:00:00 18,8 9,8 2 1 9 5 S 1029,7 - 60 0,0
09.12.2019 10:00:00 17,3 10,4 3 2 10 5 ESE 1028,9 0,7 8 0,0
09.12.2019 09:00:00 14,4 9,0 2 1 8 4 NE 1028,1 0,7 0 0,0
09.12.2019 08:00:00 14,3 8,0 3 2 9 5 WSW 1027,9 0,7 0 0,0
09.12.2019 07:00:00 14,3 7,6 3 2 10 6 WNW 1027,4 0,7 0 -
09.12.2019 06:00:00 - - - - - - - - - - -
09.12.2019 05:00:00 13,7 6,5 3 1 10 6 S 1027,0 0,7 0 0,0
09.12.2019 04:00:00 13,8 6,4 4 2 11 6 W 1027,2 0,7 0 0,0
09.12.2019 03:00:00 13,7 6,1 4 2 11 6 N 1027,1 0,7 0 0,0
09.12.2019 02:00:00 13,9 6,1 2 1 13 7 NNW 1027,1 0,7 0 0,0
09.12.2019 01:00:00 14,6 6,7 3 2 8 5 N 1027,4 0,7 0 -
09.12.2019 00:00:00 14,3 7,8 5 3 15 8 SSW 1027,6 0,7 0 0,0
08.12.2019 23:00:00 14,0 7,1 2 1 7 4 N 1027,3 0,7 0 0,0
08.12.2019 22:00:00 14,6 7,4 5 3 9 5 W 1027,4 0,7 0 0,0
08.12.2019 21:00:00 15,0 7,3 3 2 7 4 W 1027,3 0,7 0 0,0
08.12.2019 20:00:00 15,8 7,0 3 2 14 8 N 1026,9 0,7 0 0,0
08.12.2019 19:00:00 17,2 7,8 12 7 29 16 W 1026,6 0,7 0 -
08.12.2019 18:00:00 18,6 8,5 16 8 34 19 W 1026,1 0,7 12 0,0
08.12.2019 17:00:00 19,7 7,7 20 11 37 20 WSW 1025,6 0,7 23 0,0
08.12.2019 16:00:00 20,4 5,1 19 10 38 20 W 1025,6 0,6 0 0,0
08.12.2019 15:00:00 - - - - - - - - - - -
08.12.2019 14:00:00 17,6 10,2 7 4 13 7 E 1026,4 0,7 0 0,0
08.12.2019 13:00:00 16,2 9,6 6 3 10 6 E 1027,4 0,7 0 -
08.12.2019 12:00:00 15,1 10,9 4 2 7 4 SSE 1028,2 0,7 39 0,0
08.12.2019 11:00:00 14,9 11,7 4 2 8 4 SSW 1028,4 0,6 60 0,0
08.12.2019 10:00:00 13,8 11,4 3 1 5 3 SSW 1027,8 0,7 10 0,0
08.12.2019 09:00:00 11,6 9,3 2 1 5 3 NNW 1027,5 0,7 0 0,0
08.12.2019 08:00:00 11,0 8,5 2 1 5 3 W 1027,1 0,7 0 0,0
08.12.2019 07:00:00 12,0 9,7 5 3 6 4 NNW 1026,6 0,7 0 -
08.12.2019 06:00:00 11,9 9,4 4 2 8 4 NNW 1026,4 0,7 0 0,0
08.12.2019 05:00:00 11,4 8,9 2 1 5 3 NW 1026,5 0,7 0 0,0
08.12.2019 04:00:00 11,9 9,3 2 1 4 2 E 1026,7 0,7 0 0,0
08.12.2019 03:00:00 12,0 9,4 3 1 5 3 NW 1026,7 0,7 0 0,0
08.12.2019 02:00:00 11,9 9,0 2 1 4 2 NW 1026,9 0,7 0 0,0
08.12.2019 01:00:00 12,3 9,3 0 0 6 3 N 1027,1 0,7 0 -
08.12.2019 00:00:00 12,6 9,2 0 0 5 3 N 1027,3 0,7 0 0,0
07.12.2019 23:00:00 12,9 9,2 0 0 5 3 N 1027,1 0,7 0 0,0
07.12.2019 22:00:00 13,8 9,7 3 1 8 4 W 1026,7 0,7 0 0,0
07.12.2019 21:00:00 14,5 10,2 4 2 6 4 WNW 1026,2 0,7 0 0,0
07.12.2019 20:00:00 14,6 10,0 4 2 6 3 WNW 1025,7 0,7 0 0,0
07.12.2019 19:00:00 15,1 10,0 3 2 7 4 WNW 1025,4 0,7 0 -
07.12.2019 18:00:00 15,9 10,0 2 1 5 3 SW 1025,1 0,7 24 0,0
07.12.2019 17:00:00 17,0 10,4 3 1 6 3 SW 1024,5 0,7 29 0,0
07.12.2019 16:00:00 17,7 10,5 3 1 7 4 SW 1024,0 0,7 0 0,0
07.12.2019 15:00:00 18,1 10,6 2 1 8 4 SSW 1024,0 0,7 0 0,0
07.12.2019 14:00:00 18,6 10,9 4 2 7 4 SW 1024,2 0,7 0 0,0
07.12.2019 13:00:00 18,6 11,2 4 2 9 5 SW 1024,8 0,7 0 -
07.12.2019 12:00:00 17,7 10,8 7 4 12 6 WSW 1025,3 0,7 42 0,0
07.12.2019 11:00:00 16,0 10,5 3 1 5 3 W 1025,1 0,7 24 0,0
07.12.2019 10:00:00 15,2 10,2 1 1 4 2 SW 1024,3 0,7 0 0,0
07.12.2019 09:00:00 14,6 9,2 1 1 6 3 SSW 1023,9 0,7 0 0,0
07.12.2019 08:00:00 14,5 8,7 2 1 6 3 NNW 1023,3 0,7 0 0,0
07.12.2019 07:00:00 14,5 8,4 3 1 4 2 NE 1022,9 0,7 0 -
07.12.2019 06:00:00 - - - - - - - - - - -
07.12.2019 05:00:00 15,0 8,9 4 2 11 6 NNE 1022,5 0,7 0 0,0
07.12.2019 04:00:00 15,1 9,0 6 3 15 8 NE 1022,7 0,7 0 0,0
07.12.2019 03:00:00 15,1 9,0 5 3 16 9 NE 1022,7 0,7 0 0,0
07.12.2019 02:00:00 15,4 9,0 6 3 22 12 NE 1022,9 0,7 0 0,0
07.12.2019 01:00:00 15,7 9,3 8 4 22 12 NE 1023,1 0,7 0 -
07.12.2019 00:00:00 15,3 9,2 10 6 22 12 NE 1023,0 0,7 0 0,0
06.12.2019 23:00:00 15,0 8,7 10 5 19 11 NE 1022,7 0,7 0 0,0
06.12.2019 22:00:00 - - - - - - - - - - -
06.12.2019 21:00:00 15,1 9,0 6 4 20 11 ENE 1022,4 0,7 0 0,0
06.12.2019 20:00:00 15,4 9,0 9 5 16 9 NE 1022,1 0,7 0 0,0
06.12.2019 19:00:00 15,3 9,2 8 4 22 12 NE 1021,4 0,7 0 -
06.12.2019 18:00:00 16,1 9,3 9 5 26 14 ENE 1020,7 0,7 21 0,0
06.12.2019 17:00:00 16,7 9,8 10 6 19 10 ENE 1020,2 0,7 28 0,0
06.12.2019 16:00:00 17,3 9,4 13 7 22 12 E 1019,9 0,7 0 0,0

tt = temperature
td = dewpoint
ff = wind speed
fx = gusts
dd = wind direction
ppp = reduced air pressure
vv = visibility
sd = sunshine duration
rr = precipitation

Next stations